Location: Newark
(49.8410°N, 5.8117°E)
Time: 07:35:49
(UTC+00:00)

X-37B - Visible Passes

Search period start: 26 February 2021 00:00
Search period end: 08 March 2021 00:00
Orbit: 383 x 391 km, 45.0° (Epoch: 10 February)

Date Brightness Start Highest point End Pass type
(mag) Time Alt. Az. Time Alt. Az. Time Alt. Az.
26 Feb 2.6 04:07:49 23° SE 04:07:49 23° SE 04:09:23 10° ESE visible
26 Feb 2.4 05:40:11 10° WSW 05:42:38 21° SSW 05:45:05 10° SSE visible
27 Feb 1.9 04:44:21 26° SSW 04:44:27 26° SSW 04:47:11 10° SE visible
28 Feb 3.5 03:48:39 13° SE 03:48:39 13° SE 03:49:06 10° ESE visible
28 Feb 2.7 05:20:56 12° SW 05:22:18 15° SSW 05:24:12 10° SSE visible
01 Mar 2.7 04:25:18 17° S 04:25:18 17° S 04:26:36 10° SSE visible
